Lexington Weather

Lexington, Massachusetts, USA

44°F
4/22/2024 8:46am 
  • Lexington Conditions: Clear
  • Temperature: 43.5°F / 6.4°CWarmer 3.8°F than last hour.
  • Dew Point: 27.1°FDecreased 2.2°Fsince last hour.
  • Relative Humidity: 52%Decreased 14.0% since last hour.
  • Wind: Calm, 10-min avg: Calm, gust: None
  • Barometer: 29.96 in Steady
  • Visibility: 10 miles
  • Rain Today: 0.00 in
  •   

Regional Weather Roundup
for Boston, MA

        
000
ASUS41 KBOX 171810
RWRBOX

REGIONAL WEATHER ROUNDUP
NATIONAL WEATHER SERVICE BOSTON/NORTON MA
200 PM EDT WED APR 17 2024

NOTE:  "FAIR" INDICATES FEW OR NO CLOUDS BELOW 12,000 FEET WITH NO 
SIGNIFICANT WEATHER AND/OR OBSTRUCTIONS TO VISIBILITY.

MAZALL-171900-
EASTERN MASSACHUSETTS
  
CITY           SKY/WX    TMP DP  RH WIND       PRES   REMARKS
BOSTON         PTSUNNY   49  35  58 E13       30.18F                  
6HR MIN TEMP:  46; 6HR MAX TEMP:  50;                                

BEVERLY        MOSUNNY   49  36  61 SE12      30.17F                  
LAWRENCE       MOSUNNY   59  33  37 CALM      30.16F                  
BEDFORD        MOSUNNY   60  36  40 N5        30.13F                  
NORWOOD        MOSUNNY   64  37  36 VRB7      30.14F                  
MARSHFIELD     MOSUNNY   48  32  53 E9        30.19S                  
PLYMOUTH       MOSUNNY   55  34  45 NE9       30.16F                  
TAUNTON        MOSUNNY   63  38  39 MISG      30.14F                  
NEW BEDFORD    MOSUNNY   56  38  50 SE12G21   30.17F                  
$$

MAZALL-171900-
CAPE COD AND THE ISLANDS
  
CITY           SKY/WX    TMP DP  RH WIND       PRES   REMARKS
FALMOUTH       SUNNY     52  36  54 S13G21    30.18F                  
HYANNIS        MOSUNNY   50  35  56 S9        30.18S                  
CHATHAM        MOSUNNY   47  32  56 E10G18    30.20                   
PROVINCETOWN   MOSUNNY   49  35  58 E10       30.20F                  
NANTUCKET      MOSUNNY   51  34  52 E8        30.19F                  
MARTHAS VNYRD  CLOUDY    53  35  50 SE9       30.18S                  
$$
 
MAZALL-171900-
CENTRAL AND WESTERN MASSACHUSETTS
  
CITY           SKY/WX    TMP DP  RH WIND       PRES   REMARKS
WORCESTER      MOSUNNY   60  33  36 SW6       30.12F                  
6HR MIN TEMP:  44; 6HR MAX TEMP:  61;                                

FITCHBURG      MOSUNNY   62  35  36 VRB3      30.12F                  
ORANGE         MOSUNNY   62  33  33 S7        30.12F                  
SPRINGFIELD    NOT AVBL                                               
WESTFIELD      CLOUDY    61  34  36 VRB7      30.12F                  
NORTH ADAMS    CLOUDY    65  35  33 SE7       30.09F                  
PITTSFIELD     CLOUDY    60  33  36 SW8       30.09F                  
$$
 
RIZALL-171900-
RHODE ISLAND
  
CITY           SKY/WX    TMP DP  RH WIND       PRES   REMARKS
PROVIDENCE     PTSUNNY   55  42  61 SE15      30.17F                  
6HR MIN TEMP:  46; 6HR MAX TEMP:  56;                                

NEWPORT        CLOUDY    49  36  61 S12       30.18F                  
BLOCK ISLAND   CLOUDY    47  39  74 E13       30.20F                  
SMITHFIELD     PTSUNNY   61  35  37 VRB5      30.15F                  
WESTERLY       CLOUDY    50  39  66 E10       30.19F                  
$$
 
CTZALL-171900-
CONNECTICUT
  
CITY           SKY/WX    TMP DP  RH WIND       PRES   REMARKS
BRADLEY INTL   CLOUDY    63  35  35 VRB3      30.13F                  
6HR MIN TEMP:  50; 6HR MAX TEMP:  63;                                

HARTFORD       CLOUDY    61  38  42 S8        30.13F                  
PLAINVILLE     CLOUDY    60  34  38 S8        30.13F                  
BRIDGEPORT     CLOUDY    51  41  68 E14       30.15F                  
DANBURY        CLOUDY    58  36  43 VRB7      30.14F                  
GROTON         CLOUDY    51  41  68 SE12      30.17F                  
NEW HAVEN      CLOUDY    54  40  59 E12G22    30.16F                  
CHESTER        CLOUDY    52  32  46 VRB7      30.16F                  
MERIDEN        CLOUDY    58  33  39 SE8       30.15F                  
WILLIMANTIC    CLOUDY    59  35  40 S8        30.14F                  
OXFORD         CLOUDY    54  35  48 S12       30.15F                  
$$

MEZ002-015-021-024-NHZ003-005-008-011-012-014-VTZ005-008-171900-
NORTHERN NEW ENGLAND
  
CITY           SKY/WX    TMP DP  RH WIND       PRES   REMARKS
PORTLAND ME    MOSUNNY   50  31  48 VRB7      30.16F                  
6HR MIN TEMP:  42; 6HR MAX TEMP:  53;                                

BANGOR ME      MOSUNNY   54  26  34 NW14G20   30.13F                  
CONCORD NH     MOSUNNY   61  30  31 N9        30.13F                  
MANCHESTER NH  PTSUNNY   60  33  36 SE3       30.12F                  
NASHUA NH      MOSUNNY   61  34  36 VRB5      30.13F                  
PORTSMOUTH NH  PTSUNNY   52  32  47 SE14      30.15F                  
JAFFREY NH     MOSUNNY   61  29  29 VRB6      30.11F                  
KEENE NH       MOSUNNY   61  32  33 CALM      30.11F                  
BURLINGTON VT  PTSUNNY   51  28  41 N9        30.18F                  
MT. WASHINGTON PTSUNNY   27  18  69 W9          N/A  WCI  17          
$$

NYZ052-076-171900-
EASTERN NEW YORK
  
CITY           SKY/WX    TMP DP  RH WIND       PRES   REMARKS
ALBANY         PTSUNNY   63  34  33 VRB3      30.11F                  
6HR MIN TEMP:  45; 6HR MAX TEMP:  64;                                

NEW YORK CITY  CLOUDY    53  41  63 NE10      30.13F                  
6HR MIN TEMP:  53; 6HR MAX TEMP:  59;                                

$$
 
ANZALL-171900-
MARINE OBSERVATIONS
  
STATION/POSITION TIME  TEMP    WIND        PRES    VSBY  WAVE
                       AIR SEA DIR/SP/G                  HT/PER
                 (UTC) (F)     (DEG/KT/KT) (MB)    (MI)  (FT/S)
BOSTON BUOY      1750   44     110/ 10/ 12 1022.0F         2/ 9
BUZZARDS BAY     1700   45     140/ 12/ 13 1022.8F
NANTUCKET SOUND  1750   45 47  110/ 10/ 12 1022.3F         1/ 3
MASS BAY-STELLWA 1604   44 46  110/  6/  8 1023.6   1 7/8  2/ 8
ISLE OF SHOALS   1700   43     130/ 11/ 12 1021.7F
S OF BLOCK IS    1756      45                N/A           3/ 8
$$

......................KEY.........................
  SKY/WX - SKY CONDITION/PRESENT WEATHER
  TMP    - TEMPERATURE IN FAHRENHEIT
  DWPT   - DEWPOINT IN FAHRENHEIT
  RH     - RELATIVE HUMIDITY IN PERCENT
  WIND   - DIRECTION AND SPEED IN MPH
  PRES   - MEAN SEA LEVEL PRESSURE IN INCHES OF HG
  WCI    - WIND CHILL INDEX
  VSB    - VISIBILITY IN MILES
  HX     - HEAT INDEX
  TC     - TEMPERATURE IN CELSIUS
  VRB    - VARIABLE WIND DIRECTION
  N/A    - NOT AVAILABLE
  
      

Other recent Regional Weather Roundups

Mon Apr 22, 8:10am EDT

Mon Apr 22, 7:10am EDT

Mon Apr 22, 6:10am EDT

Mon Apr 22, 5:10am EDT

Mon Apr 22, 4:10am EDT

Mon Apr 22, 3:10am EDT

Mon Apr 22, 2:10am EDT

Mon Apr 22, 1:10am EDT

Mon Apr 22, 12:10am EDT

Sun Apr 21, 11:10pm EDT

Sun Apr 21, 10:10pm EDT

Sun Apr 21, 9:10pm EDT

Sun Apr 21, 8:10pm EDT

Sun Apr 21, 7:10pm EDT

Sun Apr 21, 6:10pm EDT

Sun Apr 21, 5:10pm EDT

Sun Apr 21, 4:10pm EDT

Sun Apr 21, 3:10pm EDT

Sun Apr 21, 2:10pm EDT

Sun Apr 21, 1:10pm EDT

Sun Apr 21, 12:10pm EDT

Sun Apr 21, 11:10am EDT

Sun Apr 21, 10:10am EDT

Sun Apr 21, 9:10am EDT

Sun Apr 21, 8:10am EDT

Sun Apr 21, 7:10am EDT

Sun Apr 21, 6:10am EDT

Sun Apr 21, 5:10am EDT

Sun Apr 21, 4:10am EDT

Sun Apr 21, 3:10am EDT

Sun Apr 21, 2:10am EDT

Sun Apr 21, 1:10am EDT

Sun Apr 21, 12:10am EDT

Sat Apr 20, 11:10pm EDT

Sat Apr 20, 10:10pm EDT

Sat Apr 20, 9:10pm EDT

Sat Apr 20, 8:10pm EDT

Sat Apr 20, 7:10pm EDT

Sat Apr 20, 6:10pm EDT

Sat Apr 20, 5:10pm EDT

Sat Apr 20, 4:10pm EDT

Sat Apr 20, 3:10pm EDT

Sat Apr 20, 2:10pm EDT

Sat Apr 20, 1:10pm EDT

Sat Apr 20, 12:10pm EDT

Sat Apr 20, 11:10am EDT

Sat Apr 20, 10:10am EDT

Sat Apr 20, 9:10am EDT

Sat Apr 20, 8:10am EDT

Sat Apr 20, 7:10am EDT

Sat Apr 20, 6:10am EDT

Sat Apr 20, 5:10am EDT

Sat Apr 20, 4:10am EDT

Sat Apr 20, 3:10am EDT

Sat Apr 20, 2:10am EDT

Sat Apr 20, 1:10am EDT

Sat Apr 20, 12:10am EDT

Fri Apr 19, 11:10pm EDT

Fri Apr 19, 10:10pm EDT

Fri Apr 19, 9:10pm EDT

Fri Apr 19, 8:10pm EDT

Fri Apr 19, 7:10pm EDT

Fri Apr 19, 6:10pm EDT

Fri Apr 19, 5:10pm EDT

Fri Apr 19, 4:10pm EDT

Fri Apr 19, 3:10pm EDT

Fri Apr 19, 2:10pm EDT

Fri Apr 19, 1:10pm EDT

Fri Apr 19, 12:10pm EDT

Fri Apr 19, 11:10am EDT

Fri Apr 19, 10:10am EDT

Fri Apr 19, 9:10am EDT

Fri Apr 19, 8:10am EDT

Fri Apr 19, 7:10am EDT

Fri Apr 19, 6:10am EDT

Fri Apr 19, 5:10am EDT

Fri Apr 19, 4:10am EDT

Fri Apr 19, 3:10am EDT

Fri Apr 19, 2:10am EDT

Fri Apr 19, 1:10am EDT

Fri Apr 19, 12:10am EDT

Thu Apr 18, 11:10pm EDT

Thu Apr 18, 10:10pm EDT

Thu Apr 18, 9:10pm EDT

Thu Apr 18, 8:10pm EDT

Thu Apr 18, 7:10pm EDT

Thu Apr 18, 6:10pm EDT

Thu Apr 18, 5:10pm EDT

Thu Apr 18, 4:10pm EDT

Thu Apr 18, 3:10pm EDT

Thu Apr 18, 2:10pm EDT

Thu Apr 18, 1:10pm EDT

Thu Apr 18, 12:10pm EDT

Thu Apr 18, 11:10am EDT

Thu Apr 18, 10:10am EDT

Thu Apr 18, 9:10am EDT

Thu Apr 18, 8:10am EDT

Thu Apr 18, 7:10am EDT

Thu Apr 18, 6:10am EDT

Thu Apr 18, 5:10am EDT

Thu Apr 18, 4:10am EDT

Thu Apr 18, 3:10am EDT

Thu Apr 18, 2:10am EDT

Thu Apr 18, 1:10am EDT

Thu Apr 18, 12:10am EDT

Wed Apr 17, 11:10pm EDT

Wed Apr 17, 10:10pm EDT

Wed Apr 17, 9:10pm EDT

Wed Apr 17, 8:10pm EDT

Wed Apr 17, 7:10pm EDT

Wed Apr 17, 6:10pm EDT

Wed Apr 17, 5:10pm EDT

Wed Apr 17, 4:10pm EDT

Wed Apr 17, 3:10pm EDT

Wed Apr 17, 1:10pm EDT

Wed Apr 17, 12:10pm EDT

Wed Apr 17, 11:10am EDT

Wed Apr 17, 10:10am EDT

Wed Apr 17, 9:10am EDT

Wed Apr 17, 8:10am EDT

Wed Apr 17, 7:10am EDT

Wed Apr 17, 6:10am EDT

Wed Apr 17, 5:10am EDT

Wed Apr 17, 4:10am EDT

Wed Apr 17, 3:10am EDT

Wed Apr 17, 2:10am EDT

Wed Apr 17, 1:10am EDT

Wed Apr 17, 12:10am EDT

Tue Apr 16, 11:10pm EDT

Tue Apr 16, 10:10pm EDT

Tue Apr 16, 9:10pm EDT

Tue Apr 16, 8:10pm EDT

Tue Apr 16, 7:10pm EDT

Tue Apr 16, 6:10pm EDT

Tue Apr 16, 5:10pm EDT

Tue Apr 16, 4:10pm EDT

Tue Apr 16, 3:10pm EDT

Tue Apr 16, 2:10pm EDT

Tue Apr 16, 1:10pm EDT

Tue Apr 16, 12:10pm EDT

Tue Apr 16, 11:10am EDT

Tue Apr 16, 10:10am EDT

Tue Apr 16, 9:10am EDT

Tue Apr 16, 8:10am EDT

Tue Apr 16, 7:10am EDT

Tue Apr 16, 6:10am EDT

Tue Apr 16, 5:10am EDT

Tue Apr 16, 4:10am EDT

Tue Apr 16, 3:10am EDT

Tue Apr 16, 2:10am EDT

Tue Apr 16, 1:10am EDT

Tue Apr 16, 12:10am EDT

Mon Apr 15, 11:10pm EDT

Mon Apr 15, 10:10pm EDT

Mon Apr 15, 9:10pm EDT

Mon Apr 15, 8:10pm EDT

Mon Apr 15, 7:10pm EDT

Mon Apr 15, 6:10pm EDT

Mon Apr 15, 5:10pm EDT

Mon Apr 15, 4:10pm EDT

Mon Apr 15, 3:10pm EDT

Mon Apr 15, 2:10pm EDT

Mon Apr 15, 1:10pm EDT

Mon Apr 15, 12:10pm EDT

Mon Apr 15, 11:10am EDT

Mon Apr 15, 10:10am EDT

Mon Apr 15, 9:10am EDT